Location: Bosmont
(49.7318°N, 3.8587°E)
Time: 15:21:35
(UTC+00:00)

Cosmos 1844 Rocket - Visible Passes

Search period start: 30 September 2023 00:00
Search period end: 10 October 2023 00:00
Orbit: 825 x 843 km, 71.0° (Epoch: 29 September)

Date Brightness Start Highest point End Pass type
(mag) Time Alt. Az. Time Alt. Az. Time Alt. Az.
30 Sep 5.6 18:40:08 10° WNW 18:43:09 15° W 18:46:10 10° SW visible
01 Oct 5.6 18:22:32 10° WNW 18:25:54 16° W 18:29:15 10° SW visible
02 Oct 5.6 18:04:58 10° WNW 18:08:37 18° W 18:12:15 10° SW visible
03 Oct 5.6 17:47:28 10° NW 17:51:21 20° W 17:55:14 10° SW visible
04 Oct 6.4 05:17:59 10° ESE 05:19:20 11° E 05:20:41 10° E visible
